全球星 M066星 (GLOBALSTAR M066)

导读 | 星芒AI

GLOBALSTAR M066 是 Globalstar 卫星通信公司运营的一颗低轨移动通信卫星,属于第二代 Globalstar 卫星星座的一部分。该卫星主要用于提供语音和数据通信服务,支持手持终端和移动设备在偏远地区的通信需求。M066 卫星运行在近地轨道,采用先进的通信技术,提高了信号质量和网络覆盖能力。作为 Globalstar 系统的重要组成部分,它在应急通信、航海、航空和野外作业等领域发挥着关键作用。

基本信息
目录编号:
32265
目录名称:
GLOBALSTAR M066
国际标识:
2007-048C
轨道中心:
EARTH
卫星名称:
全球星 M066星
卫星全名:
全球星 M066星 (GLOBALSTAR M066)
卫星状态:
在轨 (已飞行6584 天)
发射日期:
2007-10-20 UTC
国别 :
(GLOB)
星等 :
--
轨道信息
数据来源 国际轨道数据
星历时间: 2025-10-28T23:44:21+0800
1天前
查看轨道信息
半长轴: 7925.794km
偏心率: 0.0004476
轨道倾角: 51.961°
近地点辐角 276.721°
升交点赤经 2.570°
平近点角 251.192°
近地点: 1544.111km
远地点: 1551.207km
周期: 117.037分钟
每日圈数: 12.303783
详细信息
固有亮度:
5
最大亮度:
7.9
平衡模式:
三轴稳定
覆盖范围:
全球
运营商:
全球星公司
运营商所在国:
美国
使用方式:
暂无
卫星简介
全球星星座由48颗卫星加8颗备份星组成。这些卫星分布在8个倾角为52度的圆形轨道平面上,每个轨道平面6颗卫星,另有1 颗备用星。轨道高度约为1414km,传输时延和处理时延小于300ms,整个系统的覆盖区为南北纬70度以内的地区。该卫星已退役。
2D轨道图
3D轨道图
轨道高度分析图
轨道倾角分析图
轨道综合分析图
查看轨道综合分析图